Regional Weather Roundup
Issued by NWS Goodland, KS

Home | Current Version | Previous Version | Graphics & Text | Print | Product List | Glossary On
Versions: 1 2 3 4 5 6 7 8 9 10 11 12 13 14 15 16 17 18 19 20 21 22 23 24 25 26 27 28 29 30 31 32 33 34 35 36 37 38 39 40 41 42 43 44 45 46 47 48 49 50
000
ASUS43 KGLD 191908
RWRGLD

GOODLAND FORECAST AREA HOURLY WEATHER ROUNDUP
NATIONAL WEATHER SERVICE GOODLAND KS
1200 PM MST SUN FEB 19 2017

...OFFICIAL OBSERVATIONS...

CITY           SKY/WX    TMP DP  RH WIND       PRES   REMARKS
GOODLAND KS    CLOUDY    65  38  36 S24G36    29.68F
HILL CITY KS   SUNNY     68  48  48 S12G22    29.76F
IMPERIAL NEB   CLOUDY    57  36  45 S10       29.69F
MCCOOK NEB     CLOUDY    64  44  48 S16G22    29.70F
AKRON CO       CLOUDY    65  27  23 S18       29.65F
BURLINGTON CO  CLOUDY    66  38  35 S29G38    29.68F
LIMON CO       CLOUDY    61  29  29 S20G28    29.69F
$$

...UNOFFICIAL OBSERVATIONS...

CITY           SKY/WX    TMP DP  RH WIND       PRES   REMARKS
LENORA KS        N/A     66  32  28 S13         N/A
NORTON KS      SUNNY     68  41  37 S18G26    29.73
SHARON SPRINGS   N/A     63  46  52 S22G31      N/A
TRENTON NEB      N/A     64  32  30 S13         N/A
KIT CARSON CO    N/A     59  38  44 MISG        N/A
YUMA CO        FAIR      64  32  29 S16G22    29.67F
$$



USA.gov is the U.S. government's official web portal to all federal, state and local government web resources and services.